Regional Weather Roundup
Issued by NWS Northern Indiana

Home | Current Version | Previous Version | Graphics & Text | Print | Product List | Glossary On
Versions: 1 2 3 4 5 6 7 8 9 10 11 12 13 14 15 16 17 18 19 20 21 22 23 24 25 26 27 28 29 30 31 32 33 34 35 36 37 38 39 40 41 42 43 44 45 46 47 48 49 50
000
ASUS43 KIWX 190400
RWRIWX

KIWX WEATHER ROUNDUP
NATIONAL WEATHER SERVICE NORTHERN INDIANA
1200 AM EDT SUN APR 19 2015

NOTE: "FAIR" INDICATES FEW OR NO CLOUDS BELOW 12,000 FEET WITH NO
SIGNIFICANT WEATHER AND/OR OBSTRUCTIONS TO VISIBILITY.

* THESE STATIONS ARE NOT UNDER NWS QUALITY CONTROL. THEY ALSO MAY NOT
  REPORT WEATHER SUCH AS PRECIPITATION OR FOG.

INZ001>027-190500-
NORTHERN INDIANA

CITY           SKY/WX    TMP DP  RH WIND       PRES   REMARKS
SOUTH BEND     PTCLDY    61  23  23 E15G24    30.04F
GOSHEN         PTCLDY    55  23  28 E15       30.03F
ANGOLA*        CLEAR     55  19  24 E9        30.07F
FORT WAYNE     CLOUDY    55  32  41 E17       30.04F

$$
INZ028>050-190500-
CENTRAL INDIANA

CITY           SKY/WX    TMP DP  RH WIND       PRES   REMARKS
LAFAYETTE      MOCLDY    62  50  64 NE12      29.95S
KOKOMO*        MOCLDY    57  39  51 E16       29.99F
MUNCIE*        CLOUDY    59  44  57 E12       30.00F
INDIANAPOLIS   CLOUDY    68  46  45 E8        29.93F

$$
MIZ043>046-050>051-056>058-064>065-071>073-077>080-190500-
SOUTHWEST LOWER MICHIGAN

CITY           SKY/WX    TMP DP  RH WIND       PRES   REMARKS
BATTLE CREEK   MOCLDY    56  24  29 E12       30.09F
BENTON HARBOR  MOCLDY    59  35  40 E13       30.02F
COLDWATER*     MOCLDY    55  19  24 E12       30.07F
HILLSDALE*     MOCLDY    54  19  25 E13       30.08F
HOLLAND        MOCLDY    55  31  39 E15       30.07F
GRAND RAPIDS   PTCLDY    51  27  39 E18G24    30.11F
KALAMAZOO      MOCLDY    57  26  30 E7        30.08F
STURGIS*       FAIR      55  28  35 CALM      30.06F
THREE RIVERS*  FAIR      57  27  31 E12       30.07F

$$
OHZ001>008-015>018-024>025-190500-
NORTHWEST OHIO

CITY           SKY/WX    TMP DP  RH WIND       PRES   REMARKS
DEFIANCE       CLOUDY    54  33  45 E10       30.07F
FINDLAY        CLOUDY    54  38  54 NE16      30.05F
TOLEDO EXPRESS MOCLDY    50  34  54 E13       30.09F
TOLEDO METCALF MOCLDY    48  37  65 NE8       30.11F
LIMA           MOCLDY    55  37  50 E12       30.04F

$$
AND FOR LAKE MICHIGAN COASTAL AND OPEN LAKE BUOY OBSERVATIONS

STATION/POSITION TEMP    WIND        PRES    VSBY  WAVE
                 AIR SEA DIR/SP/G                  HT/PER
                 (F)     (DEG/KT/KT) (MB)    (MI)  (FT/S)
CALUMET HARBOR    46     360/  5/  8   N/A
MICHIGAN CITY     43      CALM  /  1   N/A
BURNS HARBOR      44      60/  5/  6 1016.3F
SAINT JOSEPH      63      50/  3/  8 1017.6S
MICHIGAN CITY     45 46  140/  2/  6   N/A           3/ 6

$$
&&



USA.gov is the U.S. government's official web portal to all federal, state and local government web resources and services.